一网星座-0208星 (ONEWEB-0208 )

导读 | 豆包AI

ONEWEB-0208是英国OneWeb星座下的低轨宽带卫星,2021年4月25日发射入轨,属于OneWeb第六批组网卫星。卫星运行在1200公里近极地轨道,配备Ku/Ka波段通信天线,依托氙等离子推力器实现轨道调整。 它作为OneWeb全球低轨互联网星座的组成部分,为航空、海事、偏远地区提供低时延高速宽带接入,助力缩小数字鸿沟,支撑应急通信保障,是OneWeb大规模星座组网的关键节点,推动了全球卫星互联网的覆盖进程。

Basic Information
目录编号:
48243
目录名称:
ONEWEB-0208
国际标识:
2021-031AK
轨道中心:
EARTH
卫星名称:
一网星座-0208星
卫星全名:
一网星座-0208星 (ONEWEB-0208 )
卫星状态:
在轨 (已飞行1784 天)
发射日期:
2021-04-25 UTC
国别 :
英国 (GB)
星等 :
--
Orbit Information
数据来源 国际轨道数据 AOE轨道数据
星历时间 2026-03-14T06:28:43+0800
16小时前
查看轨道信息
2026-03-14T11:00:00+0800
11小时前
查看轨道信息
半长轴 7583.926km 7583.927km
偏心率 0.0001946 0.0001927
轨道倾角 87.898° 87.898°
近地点辐角 80.297° 81.959°
升交点赤经 308.712° 308.675°
平近点角 279.838° 89.182°
近地点 1204.313km 1204.328km
远地点 1207.265km 1207.252km
周期 109.547分钟 109.547分钟
每日圈数 13.145032 13.145029
Detailed Information
平衡模式:
三轴稳定
覆盖范围:
全球
运营商:
一网卫星公司
运营商所在国:
英国
制造商(研发单位):
一网卫星公司
制造商所在国:
英国
使用方式:
暂无
Satellite Introduction
OneWeb卫星网络由648颗重约125公斤的微型卫星组成,运行在1200公里的轨道上。 每颗卫星都能够提供至少每秒8千兆位的吞吐量,以使用其高吞吐量的Ku频段有效载荷为家庭和移动平台提供互联网接入。该卫星仍在工作。
2D Orbit Map
3D Orbit Map
Orbit Altitude Analysis Chart
Orbit Inclination Analysis Chart
Orbit Comprehensive Analysis Chart
View Comprehensive Chart